Change the Weather History Date:

Thursday, February 13, 2014

  Actual Average Record
Temperature  
Mean Temperature 26 °F -  
Max Temperature 39 °F 32 °F 50 °F (1997)
Min Temperature 14 °F 17 °F 0 °F (1997)
Degree Days  
Heating Degree Days 38    
Moisture  
Dew Point 19 °F    
Average Humidity 77    
Maximum Humidity 100    
Minimum Humidity 59    
Precipitation  
Precipitation 0.00 in - - ()
Sea Level Pressure  
Sea Level Pressure 29.68 in    
Wind  
Wind Speed 18 mph (WNW)    
Max Wind Speed 33 mph    
Max Gust Speed 40 mph    
Visibility 9 miles    
Events      
Averages and records for this station are not official NWS values.
T = Trace of Precipitation, MM = Missing Value Source: NWS Daily Summary

Daily Weather History Graph

Daily Weather History Graph

Search for Another Location

Airport or City:

Trip Planner

Search our weather history database for the weather conditions in past years. The results will help you decide how hot, cold, wet, or windy it might be!

Date:

Astronomy

Feb. 13, 2014 Rise Set
Actual Time 7:20 AM CST 5:50 PM CST
Civil Twilight 6:51 AM CST 6:19 PM CST
Nautical Twilight 6:18 AM CST 6:52 PM CST
Astronomical Twilight 5:45 AM CST 7:25 PM CST
Moon 4:59 PM CST (2/13) 6:14 AM CST (2/13)
Length of Visible Light 11h 28m
Length of Day
10h 29m
Waxing Gibbous, 99% of the Moon is Illuminated
Feb 13
Waxing Gibbous
Feb 14
Full
Feb 22
Last Quarter
Mar 1
New
Mar 8
First Quarter

Hourly Weather History & Observations

Time (CST) Temp. Windchill Dew Point Humidity Pressure Visibility Wind Dir Wind Speed Gust Speed Precip Events Conditions
12:15 AM 23.0 °F 9.2 °F 21.2 °F 93% 29.76 in 5.0 mi SSW 17.3 mph - N/A   Overcast
12:35 AM 23.0 °F 8.7 °F 21.2 °F 93% 29.73 in 5.0 mi South 18.4 mph - N/A   Overcast
12:55 AM 23.0 °F 10.1 °F 21.2 °F 93% 29.73 in 5.0 mi South 15.0 mph 20.7 mph N/A   Overcast
1:15 AM 21.2 °F 6.8 °F 21.2 °F 100% 29.70 in 5.0 mi South 17.3 mph - N/A   Overcast
1:35 AM 23.0 °F 9.6 °F 21.2 °F 93% 29.69 in 5.0 mi South 16.1 mph - N/A   Overcast
1:55 AM 24.8 °F 10.3 °F 21.2 °F 86% 29.67 in 6.0 mi South 20.7 mph - N/A   Overcast
2:15 AM 24.8 °F 10.7 °F 21.2 °F 86% 29.65 in 7.0 mi South 19.6 mph - N/A   Overcast
2:35 AM 24.8 °F 11.1 °F 23.0 °F 93% 29.65 in 7.0 mi South 18.4 mph - N/A   Overcast
2:55 AM 26.6 °F 13.1 °F 23.0 °F 86% 29.66 in 8.0 mi SSW 19.6 mph - N/A   Overcast
3:15 AM 26.6 °F 14.3 °F 23.0 °F 86% 29.65 in 8.0 mi SSW 16.1 mph 21.9 mph N/A   Overcast
3:35 AM 26.6 °F 13.4 °F 23.0 °F 86% 29.63 in 7.0 mi SSW 18.4 mph - N/A   Overcast
3:55 AM 26.6 °F 12.7 °F 23.0 °F 86% 29.62 in 10.0 mi SSW 20.7 mph - N/A   Mostly Cloudy
4:15 AM 28.4 °F 14.7 °F 24.8 °F 86% 29.62 in 10.0 mi SW 21.9 mph - N/A   Overcast
4:35 AM 26.6 °F 12.4 °F 24.8 °F 93% 29.60 in 10.0 mi SW 21.9 mph - N/A   Overcast
4:55 AM 26.6 °F 13.4 °F 23.0 °F 86% 29.60 in 10.0 mi SW 18.4 mph - N/A   Partly Cloudy
5:15 AM 26.6 °F 14.7 °F 23.0 °F 86% 29.60 in 10.0 mi SW 15.0 mph - N/A   Partly Cloudy
5:35 AM 26.6 °F 14.3 °F 23.0 °F 86% 29.59 in 10.0 mi SW 16.1 mph 21.9 mph N/A   Scattered Clouds
5:55 AM 26.6 °F 14.3 °F 24.8 °F 93% 29.59 in 10.0 mi SW 16.1 mph - N/A   Partly Cloudy
6:15 AM 26.6 °F 14.3 °F 24.8 °F 93% 29.59 in 10.0 mi SW 16.1 mph - N/A   Clear
6:35 AM 26.6 °F 14.3 °F 24.8 °F 93% 29.59 in 10.0 mi SW 16.1 mph - N/A   Clear
6:55 AM 26.6 °F 15.2 °F 24.8 °F 93% 29.59 in 10.0 mi SW 13.8 mph - N/A   Clear
7:15 AM 26.6 °F 14.3 °F 24.8 °F 93% 29.59 in 10.0 mi SW 16.1 mph - N/A   Clear
7:35 AM 26.6 °F 14.7 °F 24.8 °F 93% 29.60 in 10.0 mi WSW 15.0 mph - N/A   Clear
7:55 AM 28.4 °F 16.6 °F 24.8 °F 86% 29.60 in 10.0 mi WSW 16.1 mph - N/A   Clear
8:15 AM 30.2 °F 19.3 °F 24.8 °F 80% 29.61 in 10.0 mi WSW 15.0 mph - N/A   Clear
8:35 AM 32.0 °F 22.1 °F 26.6 °F 80% 29.62 in - West 13.8 mph - N/A   Clear
8:55 AM 32.0 °F 22.1 °F 26.6 °F 80% 29.62 in 10.0 mi West 13.8 mph - N/A   Clear
9:15 AM 33.8 °F 23.9 °F 28.4 °F 81% 29.62 in 10.0 mi West 15.0 mph - N/A   Clear
9:35 AM 37.4 °F 27.2 °F 30.2 °F 75% 29.63 in 10.0 mi WNW 19.6 mph - N/A   Clear
9:55 AM 37.4 °F 26.6 °F 30.2 °F 75% 29.64 in 10.0 mi West 21.9 mph - N/A   Clear
10:15 AM 37.4 °F 25.9 °F 30.2 °F 75% 29.64 in 10.0 mi WNW 25.3 mph 32.2 mph N/A   Clear
10:35 AM 39.2 °F 27.4 °F 30.2 °F 70% 29.64 in 10.0 mi WNW 29.9 mph 39.1 mph N/A   Clear
10:55 AM 37.4 °F 25.4 °F 30.2 °F 75% 29.65 in 10.0 mi WNW 27.6 mph 40.3 mph N/A   Clear
11:15 AM 37.4 °F 24.4 °F 30.2 °F 75% 29.65 in 10.0 mi WNW 33.4 mph - N/A   Clear
11:35 AM 35.6 °F 22.5 °F 28.4 °F 75% 29.66 in 10.0 mi WNW 29.9 mph 40.3 mph N/A   Clear
11:55 AM 35.6 °F 23.0 °F 26.6 °F 70% 29.66 in 10.0 mi NW 27.6 mph 33.4 mph N/A   Clear
12:15 PM 33.8 °F 20.8 °F 26.6 °F 75% 29.66 in 10.0 mi NW 26.5 mph 34.5 mph N/A   Clear
12:35 PM 33.8 °F 20.8 °F 24.8 °F 70% 29.66 in 10.0 mi WNW 26.5 mph 33.4 mph N/A   Clear
12:55 PM 33.8 °F 20.5 °F 24.8 °F 70% 29.66 in 10.0 mi WNW 27.6 mph - N/A   Clear
1:35 PM 32.0 °F 17.9 °F 21.2 °F 64% 29.67 in 10.0 mi WNW 28.8 mph 38.0 mph N/A   Clear
1:55 PM 30.2 °F 16.2 °F 19.4 °F 64% 29.67 in 10.0 mi NW 25.3 mph 33.4 mph N/A   Clear
2:15 PM 30.2 °F 15.7 °F 19.4 °F 64% 29.68 in 10.0 mi WNW 27.6 mph 33.4 mph N/A   Clear
2:35 PM 28.4 °F 13.3 °F 17.6 °F 64% 29.69 in 10.0 mi WNW 27.6 mph 35.7 mph N/A   Clear
2:55 PM 28.4 °F 14.4 °F 15.8 °F 59% 29.70 in 10.0 mi NW 23.0 mph 36.8 mph N/A   Clear
3:15 PM 28.4 °F 13.8 °F 15.8 °F 59% 29.71 in 10.0 mi WNW 25.3 mph 32.2 mph N/A   Clear
3:35 PM 26.6 °F 12.7 °F 15.8 °F 64% 29.70 in 10.0 mi NW 20.7 mph 28.8 mph N/A   Clear
3:55 PM 26.6 °F 13.1 °F 15.8 °F 64% 29.71 in 10.0 mi NW 19.6 mph 27.6 mph N/A   Clear
4:15 PM 24.8 °F 10.0 °F 15.8 °F 69% 29.72 in 10.0 mi NW 21.9 mph - N/A   Clear
4:35 PM 24.8 °F 10.0 °F 14.0 °F 64% 29.73 in 10.0 mi NW 21.9 mph 28.8 mph N/A   Clear
4:55 PM 23.0 °F 7.6 °F 12.2 °F 63% 29.73 in 10.0 mi NW 21.9 mph - N/A   Clear
5:15 PM 23.0 °F 8.7 °F 12.2 °F 63% 29.73 in 10.0 mi NW 18.4 mph 25.3 mph N/A   Clear
5:35 PM 21.2 °F 6.4 °F 12.2 °F 68% 29.73 in 10.0 mi NW 18.4 mph - N/A   Clear
5:55 PM 21.2 °F 8.9 °F 12.2 °F 68% 29.74 in 10.0 mi NW 12.7 mph 19.6 mph N/A   Clear
6:15 PM 19.4 °F 6.6 °F 12.2 °F 74% 29.75 in 10.0 mi NW 12.7 mph - N/A   Clear
6:35 PM 17.6 °F 5.7 °F 10.4 °F 73% 29.76 in 10.0 mi NW 10.4 mph - N/A   Clear
6:55 PM 17.6 °F 4.3 °F 10.4 °F 73% 29.76 in 10.0 mi NW 12.7 mph - N/A   Clear
7:15 PM 15.8 °F 2.7 °F 8.6 °F 73% 29.76 in 10.0 mi NW 11.5 mph - N/A   Clear
7:35 PM 15.8 °F 2.7 °F 8.6 °F 73% 29.76 in 10.0 mi NNW 11.5 mph - N/A   Clear
7:55 PM 15.8 °F 3.4 °F 8.6 °F 73% 29.76 in 10.0 mi NNW 10.4 mph - N/A   Clear
8:15 PM 15.8 °F 3.4 °F 8.6 °F 73% 29.75 in 10.0 mi NNW 10.4 mph - N/A   Partly Cloudy
8:35 PM 15.8 °F 6.1 °F 6.8 °F 68% 29.74 in 10.0 mi NNW 6.9 mph - N/A   Mostly Cloudy
8:55 PM 14.0 °F 2.9 °F 6.8 °F 73% 29.74 in 10.0 mi North 8.1 mph - N/A   Mostly Cloudy
9:15 PM 14.0 °F 2.0 °F 6.8 °F 73% 29.74 in 10.0 mi North 9.2 mph - N/A   Mostly Cloudy
9:35 PM 14.0 °F 2.9 °F 6.8 °F 73% 29.74 in 10.0 mi North 8.1 mph - N/A   Overcast
9:55 PM 14.0 °F 2.0 °F 6.8 °F 73% 29.74 in 10.0 mi North 9.2 mph - N/A   Overcast
10:15 PM 14.0 °F 1.2 °F 6.8 °F 73% 29.73 in 10.0 mi North 10.4 mph - N/A   Overcast
10:35 PM 14.0 °F -1.4 °F 6.8 °F 73% 29.72 in 10.0 mi North 15.0 mph - N/A   Overcast
10:55 PM 14.0 °F -0.8 °F 5.0 °F 67% 29.72 in 10.0 mi North 13.8 mph - N/A   Overcast
11:15 PM 14.0 °F -1.4 °F 5.0 °F 67% 29.71 in 10.0 mi NNE 15.0 mph - N/A   Overcast
11:35 PM 14.0 °F -1.4 °F 5.0 °F 67% 29.70 in 10.0 mi NNE 15.0 mph 23.0 mph N/A   Overcast
11:55 PM 14.0 °F -2.0 °F 5.0 °F 67% 29.68 in 10.0 mi NE 16.1 mph - N/A   Overcast